Location: Marcé
(47.5801°N, 0.3280°W)
Time: 22:30:48
(UTC+01:00)

Transit 2A - Pass Details

Date: 03 December 2021
Orbit: 591 x 967 km, 66.7° (Epoch: 23 January)

Event Time Altitude Azimuth Distance (km) Brightness Sun altitude
Rises 23:37:53 0° 160° (SSE) 3,282 - -60.7°
Reaches altitude 10° 23:41:05 10° 140° (SE) 2,434 - -61.0°
Maximum altitude 23:44:30 17° 102° (ESE) 2,084 - -61.3°
Drops below altitude 10° 23:48:05 10° 65° (ENE) 2,586 - -61.6°
Sets 23:51:37 0° 46° (NE) 3,589 - -62.0°
